Date String (YYYY-MM-DD hh:mm:ss) UTC,Instrument flags,absolute air pressure of the measurement (hPa),sample flow rate (lpm),inlet stack bypass flow (lpm),air temperature of the measurement (°C),ambient temperature measured by the external sensor (°C),aerosol sample conditioner tube jacket temperature (°C),OPC LED temperature (°C),internal box temperature (°C),relative humidity of the measurement (%),span deviation,mass concentration of particles derived from Lorenz-Mie calculation of OPC scattering (μg/m³),mass concentration of particles derived from Lorenz-Mie calculation of OPC scattering (μg/m³),mass concentration of particles derived from Lorenz-Mie calculation of OPC scattering (μg/m³)
DateTimeUTC,F1_M11,P_M11,Q1_M11,Q2_M11,T1_M11,T2_M11,T3_M11,T4_M11,T5_M11,U1_M11,ZSPAN_M11,X0_M11,X2_M11,X1_M11
2023-08-18 01:00:00,SystemResetWarning,0830.7,5.00,000.00,027.8,025.2,000.0,035.9,029.2,34.3,0002.0,0025.80,0014.42,0013.00
2023-08-18 01:01:00,SystemResetWarning,0830.7,5.01,000.00,027.8,025.6,000.0,036.0,029.3,34.4,0001.6,0026.24,0014.41,0012.97
2023-08-18 01:02:00,SystemResetWarning,0830.7,5.00,000.00,027.9,026.0,000.0,036.0,029.5,34.5,0001.5,0026.16,0014.39,0012.94
2023-08-18 01:03:00,SystemResetWarning,0830.7,5.00,000.00,027.9,026.1,000.0,036.0,029.5,34.4,0001.9,0025.56,0014.25,0012.86
2023-08-18 01:04:00,SystemResetWarning,0830.7,4.98,000.00,027.9,025.0,000.0,036.0,029.3,34.5,0001.7,0025.29,0014.16,0012.81
2023-08-18 01:05:00,SystemResetWarning,0830.7,5.01,000.00,027.9,024.0,000.0,035.9,029.1,34.7,0001.6,0026.88,0014.06,0012.75
2023-08-18 01:06:00,SystemResetWarning,0830.7,5.01,000.00,027.8,023.9,000.0,035.9,029.0,34.7,0001.6,0026.62,0013.97,0012.68
2023-08-18 01:07:00,SystemResetWarning,0830.7,5.00,000.00,027.7,024.2,000.0,035.9,028.9,34.9,0001.5,0025.59,0013.96,0012.64
2023-08-18 01:08:00,SystemResetWarning,0830.7,4.97,000.00,027.7,024.6,000.0,035.9,029.0,35.0,0001.8,0024.96,0013.86,0012.57
2023-08-18 01:09:00,SystemResetWarning,0830.7,5.04,000.00,027.8,025.1,000.0,036.0,029.2,34.8,0002.1,0024.95,0013.82,0012.53
2023-08-18 01:10:00,SystemResetWarning,0830.7,4.96,000.00,028.0,025.5,000.0,036.0,029.4,34.5,0002.0,0024.82,0013.78,0012.49
2023-08-18 01:11:00,SystemResetWarning,0830.8,5.02,000.00,028.1,025.9,000.0,036.0,029.6,34.3,0002.0,0023.87,0013.69,0012.44
2023-08-18 01:12:00,SystemResetWarning,0830.8,5.00,000.00,028.2,026.1,000.0,036.1,029.6,34.1,0001.9,0025.33,0013.64,0012.40
2023-08-18 01:13:00,SystemResetWarning,0830.7,4.98,000.00,028.3,025.1,000.0,036.0,029.4,34.0,0002.0,0025.92,0013.60,0012.36
2023-08-18 01:14:00,SystemResetWarning,0830.8,5.01,000.00,028.2,024.0,000.0,036.0,029.2,34.1,0001.8,0025.81,0013.67,0012.36
2023-08-18 01:15:00,SystemResetWarning,0830.7,5.01,000.00,028.2,023.9,000.0,036.0,029.1,34.4,0001.8,0025.75,0013.73,0012.37
2023-08-18 01:16:00,SystemResetWarning,0830.7,5.00,000.00,028.1,024.2,000.0,036.0,029.0,34.6,0001.9,0024.27,0013.78,0012.39
2023-08-18 01:17:00,SystemResetWarning,0830.7,5.00,000.00,028.0,024.6,000.0,036.1,029.1,34.7,0002.1,0024.60,0013.90,0012.44
2023-08-18 01:18:00,SystemResetWarning,0830.7,5.00,000.00,028.1,025.1,000.0,036.1,029.3,34.5,0001.9,0025.20,0013.88,0012.45
2023-08-18 01:19:00,SystemResetWarning,0830.7,5.01,000.00,028.1,025.5,000.0,036.2,029.4,34.4,0001.6,0026.07,0013.90,0012.48
2023-08-18 01:20:00,SystemResetWarning,0830.7,4.99,000.00,028.1,025.9,000.0,036.2,029.5,34.5,0001.3,0025.82,0013.85,0012.49
2023-08-18 01:21:00,SystemResetWarning,0830.8,5.00,000.00,028.2,026.2,000.0,036.3,029.6,34.4,0001.0,0025.17,0013.84,0012.48
2023-08-18 01:22:00,SystemResetWarning,0830.7,4.99,000.00,028.2,026.0,000.0,036.2,029.6,34.3,0000.9,0025.15,0013.90,0012.51
2023-08-18 01:23:00,SystemResetWarning,0830.7,5.00,000.00,028.2,024.6,000.0,036.2,029.3,34.2,0001.3,0023.79,0013.93,0012.53
2023-08-18 01:24:00,SystemResetWarning,0830.7,5.00,000.00,028.1,023.9,000.0,036.1,029.1,34.4,0001.3,0023.38,0013.90,0012.54
2023-08-18 01:25:00,SystemResetWarning,0830.6,5.01,000.00,028.0,024.0,000.0,036.1,029.0,34.6,0001.3,0023.13,0013.90,0012.55
2023-08-18 01:26:00,SystemResetWarning,0830.6,4.98,000.00,027.9,024.4,000.0,036.1,029.0,35.1,0001.4,0023.77,0013.88,0012.56
2023-08-18 01:27:00,SystemResetWarning,0830.5,5.04,000.00,028.1,024.8,000.0,036.2,029.3,34.9,0001.6,0024.09,0013.88,0012.56
2023-08-18 01:28:00,SystemResetWarning,0830.6,4.97,000.00,028.3,025.3,000.0,036.2,029.5,33.3,0001.7,0024.50,0013.82,0012.55
2023-08-18 01:29:00,SystemResetWarning,0830.6,5.01,000.00,028.5,025.7,000.0,036.2,029.6,34.1,0001.9,0024.51,0013.85,0012.55
2023-08-18 01:30:00,SystemResetWarning,0830.6,5.02,000.00,028.6,026.0,000.0,036.3,029.7,33.9,0002.0,0023.97,0013.94,0012.57
2023-08-18 01:31:00,SystemResetWarning,0830.6,4.99,000.00,028.7,026.3,000.0,036.4,029.8,33.9,0002.1,0024.18,0014.01,0012.59
2023-08-18 01:32:00,SystemResetWarning,0830.6,4.99,000.00,028.7,025.5,000.0,036.3,029.6,33.8,0001.9,0024.84,0014.07,0012.62
2023-08-18 01:33:00,SystemResetWarning,0830.6,5.01,000.00,028.7,024.2,000.0,036.3,029.4,33.9,0002.1,0025.48,0014.12,0012.65
2023-08-18 01:34:00,SystemResetWarning,0830.6,5.01,000.00,028.6,023.9,000.0,036.3,029.2,34.4,0002.2,0025.75,0014.15,0012.66
2023-08-18 01:35:00,SystemResetWarning,0830.6,5.00,000.00,028.5,024.2,000.0,036.3,029.0,34.8,0002.1,0025.09,0014.20,0012.70
2023-08-18 01:36:00,SystemResetWarning,0830.6,4.98,000.00,028.5,024.6,000.0,036.4,029.2,35.3,0002.1,0025.78,0014.22,0012.73
2023-08-18 01:37:00,SystemResetWarning,0830.5,5.03,000.00,028.7,025.0,000.0,036.4,029.5,35.0,0002.2,0025.42,0014.25,0012.73
2023-08-18 01:38:00,SystemResetWarning,0830.6,4.97,000.00,029.0,025.5,000.0,036.5,029.7,34.5,0002.2,0025.78,0014.24,0012.73
2023-08-18 01:39:00,SystemResetWarning,0830.6,5.01,000.00,029.1,025.9,000.0,036.6,029.8,34.3,0001.7,0025.78,0014.26,0012.74
2023-08-18 01:40:00,SystemResetWarning,0830.6,5.01,000.00,029.3,026.2,000.0,036.6,029.9,34.1,0001.5,0024.96,0014.27,0012.74
2023-08-18 01:41:00,SystemResetWarning,0830.6,4.99,000.00,029.3,026.2,000.0,036.7,029.9,33.4,0001.2,0024.64,0014.23,0012.74
2023-08-18 01:42:00,SystemResetWarning,0830.6,4.99,000.00,029.4,024.9,000.0,036.7,029.7,33.5,0001.3,0024.77,0014.22,0012.75
2023-08-18 01:43:00,SystemResetWarning,0830.6,5.01,000.00,029.3,024.0,000.0,036.7,029.5,33.6,0001.9,0025.13,0014.26,0012.76
2023-08-18 01:44:00,SystemResetWarning,0830.6,5.01,000.00,029.3,024.0,000.0,036.7,029.4,33.8,0002.1,0024.55,0014.28,0012.79
2023-08-18 01:45:00,SystemResetWarning,0830.6,5.00,000.00,029.2,024.3,000.0,036.8,029.3,34.2,0001.9,0024.12,0014.30,0012.80
2023-08-18 01:46:00,SystemResetWarning,0830.6,5.00,000.00,029.1,024.8,000.0,036.8,029.4,34.5,0001.9,0024.01,0014.34,0012.83
2023-08-18 01:47:00,SystemResetWarning,0830.6,5.00,000.00,029.1,025.2,000.0,036.9,029.6,34.7,0002.2,0023.96,0014.33,0012.85
2023-08-18 01:48:00,SystemResetWarning,0830.6,5.00,000.00,029.1,025.6,000.0,036.9,029.7,34.8,0002.1,0023.96,0014.32,0012.89
2023-08-18 01:49:00,SystemResetWarning,0830.7,5.00,000.00,029.1,026.0,000.0,037.0,029.8,34.9,0002.1,0023.89,0014.33,0012.93
2023-08-18 01:50:00,SystemResetWarning,0830.7,5.00,000.00,029.1,026.1,000.0,037.0,029.9,34.6,0002.4,0024.23,0014.38,0012.96
2023-08-18 01:51:00,SystemResetWarning,0830.7,4.98,000.00,029.1,024.8,000.0,036.9,029.6,34.7,0002.2,0024.22,0014.38,0013.02
2023-08-18 01:52:00,SystemResetWarning,0830.6,5.00,000.00,029.0,023.9,000.0,036.8,029.4,35.0,0002.0,0025.10,0014.42,0013.06
2023-08-18 01:53:00,SystemResetWarning,0830.7,5.02,000.00,029.0,023.9,000.0,036.8,029.3,35.0,0002.2,0025.63,0014.46,0013.07
2023-08-18 01:54:00,SystemResetWarning,0830.6,5.00,000.00,028.9,024.2,000.0,036.8,029.2,35.1,0001.9,0025.12,0014.48,0013.12
2023-08-18 01:55:00,SystemResetWarning,0830.7,5.00,000.00,029.1,024.6,000.0,036.8,029.5,34.6,0001.5,0025.90,0014.47,0013.13
2023-08-18 01:56:00,SystemResetWarning,0830.7,4.99,000.00,029.2,025.1,000.0,036.9,029.6,33.8,0001.3,0027.47,0014.37,0013.06
2023-08-18 01:57:00,SystemResetWarning,0830.7,5.01,000.00,029.2,025.5,000.0,036.9,029.8,33.7,0001.4,0028.05,0014.36,0013.03
2023-08-18 01:58:00,SystemResetWarning,0830.7,5.01,000.00,029.3,025.9,000.0,037.0,029.8,33.7,0001.1,0027.57,0014.41,0013.02
2023-08-18 01:59:00,SystemResetWarning,0830.7,5.01,000.00,029.3,026.2,000.0,037.0,029.9,33.9,0000.7,0028.32,0014.46,0013.03
